Time,TemperatureF,DewpointF,PressureIn,WindDirection,WindDirectionDegrees,WindSpeedMPH,WindSpeedGustMPH,Humidity,HourlyPrecipIn,Conditions,Clouds,dailyrainin,SoftwareType,DateUTC
2013-03-13 00:00:00,52.4,51.3,30.08,SSE,161,1.0,5.0,96,0.00,,---,0.00,VWS V14.00,2013-03-13 07:00:00,
2013-03-13 00:04:00,52.4,51.3,30.08,SSE,161,1.0,5.0,96,0.00,,---,0.00,VWS V14.00,2013-03-13 07:04:00,
2013-03-13 00:14:00,52.3,51.0,30.08,South,173,0.0,3.0,96,0.00,,,0.00,weatherlink.com 1.10,2013-03-13 07:14:00,
2013-03-13 00:30:00,51.9,50.8,30.07,SE,133,0.0,3.0,96,0.00,,---,0.00,VWS V14.00,2013-03-13 07:30:00,
2013-03-13 00:32:00,51.9,51.0,30.07,SE,133,0.0,3.0,96,0.00,,,0.00,weatherlink.com 1.10,2013-03-13 07:32:00,
2013-03-13 00:34:00,51.9,50.8,30.07,SE,133,0.0,3.0,96,0.00,,---,0.00,VWS V14.00,2013-03-13 07:34:00,
2013-03-13 00:48:00,52.0,51.0,30.07,ESE,109,1.0,2.0,97,0.00,,,0.00,weatherlink.com 1.10,2013-03-13 07:48:00,
2013-03-13 01:00:00,51.9,51.1,30.07,ESE,115,1.0,3.0,97,0.00,,---,0.00,VWS V14.00,2013-03-13 08:00:00,
2013-03-13 01:04:00,51.9,51.1,30.07,ESE,115,1.0,3.0,97,0.00,,---,0.00,VWS V14.00,2013-03-13 08:04:00,
2013-03-13 01:23:00,51.4,51.0,30.07,SE,138,0.0,0.0,97,0.00,,,0.00,weatherlink.com 1.10,2013-03-13 08:23:00,
2013-03-13 01:30:00,51.4,50.6,30.07,SE,138,0.0,3.0,97,0.00,,---,0.00,VWS V14.00,2013-03-13 08:30:00,
2013-03-13 01:34:00,51.4,50.6,30.07,SE,138,0.0,3.0,97,0.00,,---,0.00,VWS V14.00,2013-03-13 08:34:00,
2013-03-13 01:41:00,51.3,51.0,30.07,SE,138,0.0,2.0,97,0.00,,,0.00,weatherlink.com 1.10,2013-03-13 08:41:00,
2013-03-13 01:57:00,51.1,50.0,30.07,SE,138,0.0,1.0,97,0.00,,,0.00,weatherlink.com 1.10,2013-03-13 08:57:00,
2013-03-13 02:00:00,51.1,50.3,30.07,SE,138,0.0,2.0,97,0.00,,---,0.00,VWS V14.00,2013-03-13 09:00:00,
2013-03-13 02:04:00,51.1,50.3,30.07,SE,138,0.0,2.0,97,0.00,,---,0.00,VWS V14.00,2013-03-13 09:04:00,
2013-03-13 02:15:00,50.9,50.0,30.07,SE,138,0.0,0.0,97,0.00,,,0.00,weatherlink.com 1.10,2013-03-13 09:15:00,
2013-03-13 02:30:00,50.4,49.6,30.05,SE,138,0.0,1.0,97,0.00,,---,0.00,VWS V14.00,2013-03-13 09:30:00,
2013-03-13 02:32:00,50.5,50.0,30.06,SE,138,0.0,0.0,97,0.00,,,0.00,weatherlink.com 1.10,2013-03-13 09:32:00,
2013-03-13 02:49:00,49.9,49.0,30.05,SE,138,0.0,1.0,97,0.01,,,0.01,weatherlink.com 1.10,2013-03-13 09:49:00,
2013-03-13 03:00:00,49.5,48.7,30.04,SE,138,0.0,1.0,97,0.01,,---,0.01,VWS V14.00,2013-03-13 10:00:00,
2013-03-13 03:04:00,49.5,48.7,30.04,SE,138,0.0,1.0,97,0.01,,---,0.01,VWS V14.00,2013-03-13 10:04:00,
2013-03-13 03:07:00,49.4,49.0,30.04,SE,138,0.0,0.0,97,0.01,,,0.01,weatherlink.com 1.10,2013-03-13 10:07:00,
2013-03-13 03:24:00,49.3,49.0,30.04,SW,214,0.0,2.0,97,0.01,,,0.01,weatherlink.com 1.10,2013-03-13 10:24:00,
2013-03-13 03:30:00,49.0,48.2,30.03,SW,214,0.0,2.0,97,0.01,,---,0.01,VWS V14.00,2013-03-13 10:30:00,
2013-03-13 03:34:00,49.0,48.2,30.03,SW,214,0.0,2.0,97,0.01,,---,0.01,VWS V14.00,2013-03-13 10:34:00,
2013-03-13 03:41:00,48.8,48.0,30.04,SW,214,0.0,0.0,97,0.00,,,0.01,weatherlink.com 1.10,2013-03-13 10:41:00,
2013-03-13 03:58:00,48.5,48.0,30.03,SW,214,0.0,1.0,97,0.00,,,0.01,weatherlink.com 1.10,2013-03-13 10:58:00,
2013-03-13 04:00:00,48.4,47.6,30.03,SW,214,0.0,2.0,97,0.01,,---,0.01,VWS V14.00,2013-03-13 11:00:00,
2013-03-13 04:04:00,48.4,47.6,30.03,SW,214,0.0,2.0,97,0.01,,---,0.01,VWS V14.00,2013-03-13 11:04:00,
2013-03-13 04:30:00,48.1,47.3,30.03,West,269,2.0,3.0,97,0.00,,---,0.01,VWS V14.00,2013-03-13 11:30:00,
2013-03-13 04:33:00,48.1,47.0,30.03,West,269,1.0,3.0,97,0.00,,,0.01,weatherlink.com 1.10,2013-03-13 11:33:00,
2013-03-13 04:50:00,47.5,47.0,30.04,West,269,2.0,3.0,97,0.00,,,0.01,weatherlink.com 1.10,2013-03-13 11:50:00,
2013-03-13 05:00:00,47.4,46.6,30.04,WNW,296,3.0,5.0,97,0.00,,---,0.01,VWS V14.00,2013-03-13 12:00:00,
2013-03-13 05:04:00,47.4,46.6,30.04,WNW,296,3.0,5.0,97,0.00,,---,0.01,VWS V14.00,2013-03-13 12:04:00,
2013-03-13 05:07:00,47.4,47.0,30.04,WNW,296,2.0,4.0,97,0.00,,,0.01,weatherlink.com 1.10,2013-03-13 12:07:00,
2013-03-13 05:25:00,46.9,46.0,30.04,East,99,0.0,2.0,97,0.00,,,0.01,weatherlink.com 1.10,2013-03-13 12:25:00,
2013-03-13 05:30:00,47.1,46.3,30.04,East,101,1.0,4.0,97,0.00,,---,0.01,VWS V14.00,2013-03-13 12:30:00,
2013-03-13 05:34:00,47.1,46.3,30.04,East,101,1.0,4.0,97,0.00,,---,0.01,VWS V14.00,2013-03-13 12:34:00,
2013-03-13 05:41:00,47.4,47.0,30.04,East,82,0.0,3.0,97,0.00,,,0.01,weatherlink.com 1.10,2013-03-13 12:41:00,
2013-03-13 05:59:00,48.1,47.0,30.03,East,90,0.0,3.0,97,0.00,,,0.01,weatherlink.com 1.10,2013-03-13 12:59:00,
2013-03-13 06:00:00,48.1,47.3,30.03,East,86,0.0,3.0,97,0.00,,---,0.01,VWS V14.00,2013-03-13 13:00:00,
2013-03-13 06:04:00,48.1,47.3,30.03,East,86,0.0,3.0,97,0.00,,---,0.01,VWS V14.00,2013-03-13 13:04:00,
2013-03-13 06:16:00,48.1,47.0,30.03,ESE,103,1.0,2.0,97,0.00,,,0.01,weatherlink.com 1.10,2013-03-13 13:16:00,
2013-03-13 06:30:00,48.2,47.4,30.05,ESE,103,0.0,5.0,97,0.00,,---,0.01,VWS V14.00,2013-03-13 13:30:00,
2013-03-13 06:33:00,48.2,47.0,30.05,ESE,103,0.0,2.0,97,0.00,,,0.01,weatherlink.com 1.10,2013-03-13 13:33:00,
2013-03-13 06:34:00,48.2,47.4,30.05,ESE,103,0.0,5.0,97,0.00,,---,0.01,VWS V14.00,2013-03-13 13:34:00,
2013-03-13 06:50:00,47.8,47.0,30.05,ESE,117,1.0,2.0,97,0.00,,,0.01,weatherlink.com 1.10,2013-03-13 13:50:00,
2013-03-13 07:00:00,47.4,46.3,30.05,ESE,117,0.0,2.0,96,0.00,,---,0.01,VWS V14.00,2013-03-13 14:00:00,
2013-03-13 07:04:00,47.4,46.3,30.05,ESE,117,0.0,2.0,96,0.00,,---,0.01,VWS V14.00,2013-03-13 14:04:00,
2013-03-13 07:08:00,47.4,46.0,30.05,SE,135,2.0,2.0,96,0.00,,,0.01,weatherlink.com 1.10,2013-03-13 14:08:00,
2013-03-13 07:24:00,46.9,46.0,30.05,SE,142,1.0,2.0,96,0.00,,,0.01,weatherlink.com 1.10,2013-03-13 14:24:00,
2013-03-13 07:30:00,47.4,46.6,30.05,SE,136,0.0,3.0,97,0.00,,---,0.01,VWS V14.00,2013-03-13 14:30:00,
2013-03-13 07:34:00,47.4,46.6,30.05,SE,136,0.0,3.0,97,0.00,,---,0.01,VWS V14.00,2013-03-13 14:34:00,
2013-03-13 07:42:00,48.1,47.0,30.05,SSE,153,0.0,3.0,97,0.00,,,0.01,weatherlink.com 1.10,2013-03-13 14:42:00,
2013-03-13 08:00:00,49.1,48.0,30.06,SSE,167,2.0,3.0,97,0.00,,,0.01,weatherlink.com 1.10,2013-03-13 15:00:00,
2013-03-13 08:04:00,49.0,48.2,30.07,SSE,158,1.0,5.0,97,0.00,,---,0.01,VWS V14.00,2013-03-13 15:04:00,
2013-03-13 08:16:00,49.5,49.0,30.07,SE,133,0.0,3.0,97,0.00,,,0.01,weatherlink.com 1.10,2013-03-13 15:16:00,
2013-03-13 08:30:00,49.6,48.8,30.08,SSW,202,2.0,4.0,97,0.00,,---,0.01,VWS V14.00,2013-03-13 15:30:00,
2013-03-13 08:34:00,49.7,49.0,30.07,SSW,202,2.0,3.0,97,0.00,,,0.01,weatherlink.com 1.10,2013-03-13 15:34:00,
2013-03-13 08:51:00,50.0,50.0,30.08,ESE,106,0.0,5.0,98,0.00,,,0.01,weatherlink.com 1.10,2013-03-13 15:51:00,
2013-03-13 09:00:00,50.4,49.9,30.08,SE,138,0.0,5.0,98,0.00,,---,0.01,VWS V14.00,2013-03-13 16:00:00,
2013-03-13 09:04:00,50.4,49.9,30.08,SE,138,0.0,5.0,98,0.00,,---,0.01,VWS V14.00,2013-03-13 16:04:00,
2013-03-13 09:08:00,50.4,50.0,30.09,SE,138,0.0,2.0,98,0.00,,,0.01,weatherlink.com 1.10,2013-03-13 16:08:00,
2013-03-13 09:25:00,50.7,50.0,30.09,NE,56,0.0,3.0,97,0.00,,,0.01,weatherlink.com 1.10,2013-03-13 16:25:00,
2013-03-13 09:30:00,51.7,51.2,30.09,ESE,110,0.0,3.0,98,0.00,,---,0.01,VWS V14.00,2013-03-13 16:30:00,
2013-03-13 09:34:00,51.7,51.2,30.09,ESE,110,0.0,3.0,98,0.00,,---,0.01,VWS V14.00,2013-03-13 16:34:00,
2013-03-13 09:43:00,52.4,52.0,30.09,NW,325,1.0,2.0,98,0.00,,,0.01,weatherlink.com 1.10,2013-03-13 16:43:00,
2013-03-13 10:00:00,53.4,53.0,30.10,WSW,257,2.0,3.0,98,0.00,,,0.01,weatherlink.com 1.10,2013-03-13 17:00:00,
2013-03-13 10:17:00,52.9,52.0,30.10,WNW,291,3.0,6.0,97,0.00,,,0.01,weatherlink.com 1.10,2013-03-13 17:17:00,
2013-03-13 10:30:00,52.1,50.7,30.10,WSW,240,4.0,7.0,95,0.00,,---,0.01,VWS V14.00,2013-03-13 17:30:00,
2013-03-13 10:34:00,52.1,51.0,30.10,West,268,4.0,7.0,95,0.00,,,0.01,weatherlink.com 1.10,2013-03-13 17:34:00,
2013-03-13 10:51:00,52.7,51.0,30.11,NW,305,4.0,6.0,95,0.00,,,0.01,weatherlink.com 1.10,2013-03-13 17:51:00,
2013-03-13 11:00:00,53.2,51.8,30.10,WSW,246,5.0,7.0,95,0.00,,---,0.01,VWS V14.00,2013-03-13 18:00:00,
2013-03-13 11:04:00,53.2,51.8,30.10,WSW,246,5.0,7.0,95,0.00,,---,0.01,VWS V14.00,2013-03-13 18:04:00,
2013-03-13 11:09:00,53.3,52.0,30.10,SW,233,5.0,7.0,95,0.00,,,0.01,weatherlink.com 1.10,2013-03-13 18:09:00,
2013-03-13 11:27:00,53.2,51.0,30.11,WNW,283,6.0,8.0,93,0.00,,,0.01,weatherlink.com 1.10,2013-03-13 18:27:00,
2013-03-13 11:30:00,52.8,51.1,30.11,West,267,6.0,8.0,94,0.00,,---,0.01,VWS V14.00,2013-03-13 18:30:00,
2013-03-13 11:34:00,52.8,51.1,30.11,West,267,6.0,8.0,94,0.00,,---,0.01,VWS V14.00,2013-03-13 18:34:00,
2013-03-13 11:43:00,53.4,52.0,30.11,NW,307,7.0,8.0,94,0.00,,,0.01,weatherlink.com 1.10,2013-03-13 18:43:00,
2013-03-13 12:00:00,54.0,52.0,30.10,WNW,299,5.0,9.0,93,0.00,,---,0.01,VWS V14.00,2013-03-13 19:00:00,
2013-03-13 12:01:00,54.1,53.0,30.10,WNW,294,7.0,9.0,94,0.00,,,0.01,weatherlink.com 1.10,2013-03-13 19:01:00,
2013-03-13 12:04:00,54.0,52.0,30.10,WNW,299,5.0,9.0,93,0.00,,---,0.01,VWS V14.00,2013-03-13 19:04:00,
2013-03-13 12:19:00,55.1,53.0,30.09,West,273,7.0,9.0,93,0.00,,,0.01,weatherlink.com 1.10,2013-03-13 19:19:00,
2013-03-13 12:30:00,55.5,52.9,30.09,West,279,5.0,9.0,91,0.00,,---,0.01,VWS V14.00,2013-03-13 19:30:00,
2013-03-13 12:34:00,55.5,52.9,30.09,West,279,5.0,9.0,91,0.00,,---,0.01,VWS V14.00,2013-03-13 19:34:00,
2013-03-13 13:00:00,56.2,53.3,30.08,West,278,6.0,9.0,90,0.00,,---,0.01,VWS V14.00,2013-03-13 20:00:00,
2013-03-13 13:04:00,56.2,53.3,30.08,West,278,6.0,9.0,90,0.00,,---,0.01,VWS V14.00,2013-03-13 20:04:00,
2013-03-13 13:11:00,56.1,54.0,30.08,West,273,6.0,8.0,91,0.00,,,0.01,weatherlink.com 1.10,2013-03-13 20:11:00,
2013-03-13 13:27:00,55.9,53.0,30.08,WSW,252,5.0,11.0,91,0.00,,,0.01,weatherlink.com 1.10,2013-03-13 20:27:00,
2013-03-13 13:30:00,56.7,53.5,30.07,West,263,7.0,11.0,89,0.00,,---,0.01,VWS V14.00,2013-03-13 20:30:00,
2013-03-13 13:34:00,56.7,53.5,30.07,West,263,7.0,11.0,89,0.00,,---,0.01,VWS V14.00,2013-03-13 20:34:00,
2013-03-13 13:45:00,55.6,53.0,30.07,SW,236,5.0,11.0,91,0.00,,,0.01,weatherlink.com 1.10,2013-03-13 20:45:00,
2013-03-13 14:00:00,55.9,53.3,30.06,West,281,6.0,11.0,91,0.00,,---,0.01,VWS V14.00,2013-03-13 21:00:00,
2013-03-13 14:03:00,56.0,54.0,30.06,West,277,9.0,9.0,91,0.00,,,0.01,weatherlink.com 1.10,2013-03-13 21:03:00,
2013-03-13 14:04:00,55.9,53.3,30.06,West,281,6.0,11.0,91,0.00,,---,0.01,VWS V14.00,2013-03-13 21:04:00,
2013-03-13 14:19:00,56.6,54.0,30.05,West,273,7.0,9.0,89,0.00,,,0.01,weatherlink.com 1.10,2013-03-13 21:19:00,
2013-03-13 14:30:00,56.3,53.4,30.05,WNW,297,4.0,9.0,90,0.00,,---,0.01,VWS V14.00,2013-03-13 21:30:00,
2013-03-13 14:34:00,56.3,53.4,30.05,WNW,297,4.0,9.0,90,0.00,,---,0.01,VWS V14.00,2013-03-13 21:34:00,
2013-03-13 14:37:00,56.2,53.0,30.05,West,262,6.0,9.0,90,0.00,,,0.01,weatherlink.com 1.10,2013-03-13 21:37:00,
2013-03-13 14:55:00,55.8,54.0,30.04,WNW,301,6.0,11.0,92,0.00,,,0.01,weatherlink.com 1.10,2013-03-13 21:55:00,
2013-03-13 15:00:00,55.8,53.2,30.04,West,277,7.0,11.0,91,0.00,,---,0.01,VWS V14.00,2013-03-13 22:00:00,
2013-03-13 15:04:00,55.8,53.2,30.04,West,277,7.0,11.0,91,0.00,,---,0.01,VWS V14.00,2013-03-13 22:04:00,
2013-03-13 15:11:00,55.4,53.0,30.04,West,259,8.0,11.0,92,0.00,,,0.01,weatherlink.com 1.10,2013-03-13 22:11:00,
2013-03-13 15:29:00,54.6,53.0,30.04,WNW,288,5.0,14.0,95,0.00,,,0.01,weatherlink.com 1.10,2013-03-13 22:29:00,
2013-03-13 15:30:00,54.9,52.9,30.03,WNW,282,8.0,14.0,93,0.00,,---,0.01,VWS V14.00,2013-03-13 22:30:00,
2013-03-13 15:34:00,54.9,52.9,30.03,WNW,282,8.0,14.0,93,0.00,,---,0.01,VWS V14.00,2013-03-13 22:34:00,
2013-03-13 15:46:00,54.9,53.0,30.03,WSW,257,5.0,13.0,92,0.00,,,0.01,weatherlink.com 1.10,2013-03-13 22:46:00,
2013-03-13 16:00:00,55.7,53.1,30.03,West,274,7.0,13.0,91,0.00,,---,0.01,VWS V14.00,2013-03-13 23:00:00,
2013-03-13 16:03:00,56.0,54.0,30.03,WNW,299,6.0,12.0,91,0.00,,,0.01,weatherlink.com 1.10,2013-03-13 23:03:00,
2013-03-13 16:04:00,55.7,53.1,30.03,West,274,7.0,13.0,91,0.00,,---,0.01,VWS V14.00,2013-03-13 23:04:00,
2013-03-13 16:20:00,54.2,53.0,30.03,WNW,302,4.0,13.0,94,0.00,,,0.01,weatherlink.com 1.10,2013-03-13 23:20:00,
2013-03-13 16:30:00,54.6,52.9,30.03,WSW,257,8.0,13.0,94,0.00,,---,0.01,VWS V14.00,2013-03-13 23:30:00,
2013-03-13 16:34:00,54.6,52.9,30.03,WSW,257,8.0,13.0,94,0.00,,---,0.01,VWS V14.00,2013-03-13 23:34:00,
2013-03-13 16:38:00,54.3,53.0,30.03,WSW,258,9.0,12.0,94,0.00,,,0.01,weatherlink.com 1.10,2013-03-13 23:38:00,
2013-03-13 16:55:00,53.7,52.0,30.03,WSW,238,10.0,13.0,95,0.00,,,0.01,weatherlink.com 1.10,2013-03-13 23:55:00,
2013-03-13 17:00:00,53.6,52.2,30.02,NW,313,7.0,14.0,95,0.00,,---,0.01,VWS V14.00,2013-03-14 00:00:00,
2013-03-13 17:04:00,53.6,52.2,30.02,NW,313,7.0,14.0,95,0.00,,---,0.01,VWS V14.00,2013-03-14 00:04:00,
2013-03-13 17:12:00,53.3,52.0,30.02,West,267,12.0,16.0,95,0.00,,,0.01,weatherlink.com 1.10,2013-03-14 00:12:00,
2013-03-13 17:30:00,53.5,52.0,30.02,SW,229,8.0,13.0,96,0.00,,,0.01,weatherlink.com 1.10,2013-03-14 00:30:00,
2013-03-13 17:34:00,53.5,52.4,30.03,West,267,3.0,15.0,96,0.00,,---,0.01,VWS V14.00,2013-03-14 00:34:00,
2013-03-13 17:47:00,53.4,52.0,30.03,WSW,254,5.0,9.0,95,0.00,,,0.01,weatherlink.com 1.10,2013-03-14 00:47:00,
2013-03-13 18:00:00,54.3,52.9,30.03,WNW,287,1.0,10.0,95,0.00,,---,0.01,VWS V14.00,2013-03-14 01:00:00,
2013-03-13 18:04:00,54.3,53.0,30.03,WNW,287,2.0,4.0,95,0.00,,,0.01,weatherlink.com 1.10,2013-03-14 01:04:00,
2013-03-13 18:21:00,53.6,52.0,30.03,West,269,2.0,3.0,94,0.00,,,0.01,weatherlink.com 1.10,2013-03-14 01:21:00,
2013-03-13 18:30:00,53.3,51.9,30.03,WNW,287,0.0,4.0,95,0.00,,---,0.01,VWS V14.00,2013-03-14 01:30:00,
2013-03-13 18:34:00,53.3,51.9,30.03,WNW,287,0.0,4.0,95,0.00,,---,0.01,VWS V14.00,2013-03-14 01:34:00,
2013-03-13 18:39:00,53.3,52.0,30.03,West,269,2.0,3.0,95,0.00,,,0.01,weatherlink.com 1.10,2013-03-14 01:39:00,
2013-03-13 18:55:00,52.9,52.0,30.03,West,261,1.0,4.0,95,0.00,,,0.01,weatherlink.com 1.10,2013-03-14 01:55:00,
2013-03-13 19:00:00,52.9,51.8,30.04,SSW,212,0.0,4.0,96,0.00,,---,0.01,VWS V14.00,2013-03-14 02:00:00,
2013-03-13 19:04:00,52.9,51.8,30.04,SSW,212,0.0,4.0,96,0.00,,---,0.01,VWS V14.00,2013-03-14 02:04:00,
2013-03-13 19:13:00,52.8,52.0,30.04,SW,223,1.0,3.0,95,0.00,,,0.01,weatherlink.com 1.10,2013-03-14 02:13:00,
2013-03-13 19:30:00,52.7,52.0,30.05,WSW,258,1.0,4.0,96,0.00,,,0.01,weatherlink.com 1.10,2013-03-14 02:30:00,
2013-03-13 19:47:00,52.4,51.0,30.05,WSW,243,3.0,4.0,96,0.00,,,0.01,weatherlink.com 1.10,2013-03-14 02:47:00,
2013-03-13 20:00:00,52.0,50.9,30.06,West,267,1.0,6.0,96,0.00,,---,0.01,VWS V14.00,2013-03-14 03:00:00,
2013-03-13 20:04:00,52.0,50.9,30.06,West,267,1.0,6.0,96,0.00,,---,0.01,VWS V14.00,2013-03-14 03:04:00,
2013-03-13 20:22:00,52.0,51.0,30.06,West,275,2.0,3.0,97,0.00,,,0.01,weatherlink.com 1.10,2013-03-14 03:22:00,
2013-03-13 20:30:00,51.9,51.1,30.07,West,275,0.0,4.0,97,0.00,,---,0.01,VWS V14.00,2013-03-14 03:30:00,
2013-03-13 20:34:00,51.9,51.1,30.07,West,275,0.0,4.0,97,0.00,,---,0.01,VWS V14.00,2013-03-14 03:34:00,
2013-03-13 20:38:00,52.0,51.0,30.07,West,275,0.0,0.0,97,0.00,,,0.01,weatherlink.com 1.10,2013-03-14 03:38:00,
2013-03-13 20:55:00,52.1,51.0,30.07,South,185,1.0,2.0,97,0.00,,,0.01,weatherlink.com 1.10,2013-03-14 03:55:00,
2013-03-13 21:00:00,52.0,51.2,30.06,ESE,119,2.0,3.0,97,0.00,,---,0.01,VWS V14.00,2013-03-14 04:00:00,
2013-03-13 21:04:00,52.0,51.2,30.06,ESE,119,2.0,3.0,97,0.00,,---,0.01,VWS V14.00,2013-03-14 04:04:00,
2013-03-13 21:13:00,51.8,51.0,30.06,ESE,106,4.0,5.0,97,0.00,,,0.01,weatherlink.com 1.10,2013-03-14 04:13:00,
2013-03-13 21:29:00,51.7,51.0,30.06,ESE,116,0.0,6.0,97,0.00,,,0.01,weatherlink.com 1.10,2013-03-14 04:29:00,
2013-03-13 21:30:00,51.7,50.9,30.06,ESE,116,0.0,5.0,97,0.00,,---,0.01,VWS V14.00,2013-03-14 04:30:00,
2013-03-13 21:34:00,51.7,50.9,30.06,ESE,116,0.0,5.0,97,0.00,,---,0.01,VWS V14.00,2013-03-14 04:34:00,
2013-03-13 21:46:00,51.7,51.0,30.06,SE,139,2.0,2.0,97,0.00,,,0.01,weatherlink.com 1.10,2013-03-14 04:46:00,
2013-03-13 22:00:00,51.7,50.9,30.07,South,173,0.0,2.0,97,0.00,,---,0.01,VWS V14.00,2013-03-14 05:00:00,
2013-03-13 22:04:00,51.7,51.0,30.07,South,173,0.0,2.0,97,0.00,,,0.01,weatherlink.com 1.10,2013-03-14 05:04:00,
2013-03-13 22:21:00,51.3,51.0,30.07,SSW,207,3.0,4.0,97,0.00,,,0.01,weatherlink.com 1.10,2013-03-14 05:21:00,
2013-03-13 22:30:00,51.3,50.5,30.08,SW,226,1.0,6.0,97,0.00,,---,0.01,VWS V14.00,2013-03-14 05:30:00,
2013-03-13 22:34:00,51.3,50.5,30.08,SW,226,1.0,6.0,97,0.00,,---,0.01,VWS V14.00,2013-03-14 05:34:00,
2013-03-13 22:38:00,51.2,50.0,30.08,WSW,244,1.0,5.0,97,0.00,,,0.01,weatherlink.com 1.10,2013-03-14 05:38:00,
2013-03-13 22:55:00,50.7,50.0,30.08,West,271,4.0,6.0,97,0.00,,,0.01,weatherlink.com 1.10,2013-03-14 05:55:00,
2013-03-13 23:00:00,50.6,49.8,30.08,West,270,1.0,7.0,97,0.00,,---,0.01,VWS V14.00,2013-03-14 06:00:00,
2013-03-13 23:04:00,50.6,49.8,30.08,West,270,1.0,7.0,97,0.00,,---,0.01,VWS V14.00,2013-03-14 06:04:00,
2013-03-13 23:13:00,50.9,50.0,30.08,SSW,197,1.0,4.0,98,0.00,,,0.01,weatherlink.com 1.10,2013-03-14 06:13:00,
2013-03-13 23:30:00,51.0,51.0,30.08,SW,218,0.0,3.0,98,0.00,,,0.01,weatherlink.com 1.10,2013-03-14 06:30:00,
2013-03-13 23:47:00,51.3,51.0,30.08,SW,228,0.0,2.0,98,0.00,,,0.01,weatherlink.com 1.10,2013-03-14 06:47:00,